Des Moines, IA

10:26 PM CDT on May 20, 2018 (GMT -0500)
Des Moines International

Weather History for KDSM - April, 2014

Change the Weather History Date:

Sunday, April 27, 2014

  Actual Average Record
Temperature  
Mean Temperature 57 °F 56 °F  
Max Temperature 66 °F 67 °F 88 °F (1981)
Min Temperature 47 °F 46 °F 28 °F (1950)
Degree Days  
Heating Degree Days 8 10  
Month to date heating degree days 366 385  
Since 1 July heating degree days 6603 6012  
Cooling Degree Days 0 1  
Month to date cooling degree days 12 10  
Year to date cooling degree days 12 11  
Growing Degree Days 6 (Base 50)    
Moisture  
Dew Point 49 °F    
Average Humidity 72    
Maximum Humidity 87    
Minimum Humidity 56    
Precipitation  
Precipitation 0.91 in 0.16 in 1.64 in (1990)
Month to date precipitation 3.72 3.38  
Year to date precipitation 6.69 7.96  
Snow  
Snow 0.00 in 0.10 in T in (2017)
Month to date snowfall 0.8 1.8  
Since 1 July snowfall 48.3 35.3  
Snow Depth 0.00 in    
Sea Level Pressure  
Sea Level Pressure 29.53 in    
Wind  
Wind Speed 15 mph (East)    
Max Wind Speed 25 mph    
Max Gust Speed 41 mph    
Visibility 9 miles    
Events Fog , Rain , Thunderstorm    
T = Trace of Precipitation, MM = Missing Value Source: NWS Daily Summary

Daily Weather History Graph

Daily Weather History Graph

Search for Another Location

Airport or City:

Astronomy

Apr. 27, 2014 Rise Set
Actual Time 6:16 AM CDT 8:08 PM CDT
Civil Twilight 5:47 AM CDT 8:38 PM CDT
Nautical Twilight 5:11 AM CDT 9:14 PM CDT
Astronomical Twilight 4:32 AM CDT 9:53 PM CDT
Moon 5:19 AM CDT (4/27) 6:41 PM CDT (4/27)
Length of Visible Light 14h 50m
Length of Day
13h 51m
Waning Crescent, 3% of the Moon is Illuminated
Apr 27
Waning Crescent
Apr 29
New
May 6
First Quarter
May 14
Full
May 21
Last Quarter

Hourly Weather History & Observations

Time (CDT) Temp. Dew Point Humidity Pressure Visibility Wind Dir Wind Speed Gust Speed Precip Events Conditions
12:54 AM 55.9 °F 41.0 °F 57% 29.71 in 10.0 mi East 17.3 mph 32.2 mph 0.00 in   Overcast
1:54 AM 52.0 °F 39.0 °F 61% 29.70 in 10.0 mi ESE 17.3 mph 32.2 mph N/A   Overcast
2:54 AM 48.9 °F 36.0 °F 61% 29.70 in 10.0 mi ESE 18.4 mph 34.5 mph N/A   Mostly Cloudy
3:54 AM 48.0 °F 35.1 °F 61% 29.68 in 10.0 mi East 16.1 mph 26.5 mph N/A   Overcast
4:54 AM 46.9 °F 35.1 °F 63% 29.66 in 10.0 mi East 19.6 mph 28.8 mph N/A   Overcast
5:54 AM 46.9 °F 36.0 °F 66% 29.64 in 10.0 mi ESE 17.3 mph 28.8 mph N/A   Overcast
6:54 AM 48.0 °F 37.0 °F 66% 29.62 in 10.0 mi East 15.0 mph - N/A   Overcast
7:29 AM 46.9 °F 37.0 °F 68% 29.62 in 10.0 mi ESE 15.0 mph 23.0 mph N/A Thunderstorm Thunderstorm
7:54 AM 46.9 °F 37.9 °F 71% 29.60 in 10.0 mi East 16.1 mph 24.2 mph 0.00 in Rain , Thunderstorm Light Thunderstorms and Rain
8:31 AM 46.9 °F 39.9 °F 77% 29.54 in 10.0 mi East 17.3 mph 24.2 mph 0.01 in Rain Light Rain
8:54 AM 46.9 °F 39.9 °F 77% 29.58 in 10.0 mi East 10.4 mph 23.0 mph 0.01 in   Overcast
9:54 AM 54.0 °F 43.0 °F 66% 29.58 in 10.0 mi East 13.8 mph 19.6 mph N/A   Overcast
10:54 AM 55.4 °F 44.6 °F 67% 29.58 in 10.0 mi ESE 13.8 mph 21.9 mph N/A   Overcast
11:54 AM 62.1 °F 46.0 °F 56% 29.53 in 10.0 mi ESE 13.8 mph 23.0 mph N/A   Overcast
12:54 PM 64.0 °F 48.9 °F 58% 29.50 in 10.0 mi ESE 8.1 mph 20.7 mph N/A   Overcast
1:54 PM 66.0 °F 50.0 °F 56% 29.46 in 10.0 mi ESE 11.5 mph - 0.00 in Rain Light Rain
2:17 PM 66.0 °F 50.0 °F 56% 29.43 in 10.0 mi East 11.5 mph 19.6 mph 0.00 in Rain , Thunderstorm Light Thunderstorms and Rain
2:29 PM 62.1 °F 54.0 °F 75% 29.49 in 1.0 mi WNW 16.1 mph 41.4 mph 0.01 in Rain , Thunderstorm Light Thunderstorms and Rain
2:40 PM 59.0 °F 55.0 °F 87% 29.51 in 0.5 mi West 8.1 mph - 0.37 in Fog , Rain , Thunderstorm Light Thunderstorms and Rain
2:54 PM 59.0 °F 55.4 °F 88% 29.51 in 1.0 mi North 8.1 mph - N/A Rain , Thunderstorm Light Thunderstorms and Rain
3:03 PM 59.0 °F 55.9 °F 90% 29.51 in 4.0 mi North 9.2 mph - 0.01 in Rain , Thunderstorm Light Thunderstorms and Rain
3:38 PM 59.0 °F 55.9 °F 90% 29.51 in 5.0 mi NE 9.2 mph - 0.10 in Rain , Thunderstorm Thunderstorms and Rain
3:54 PM 59.0 °F 55.9 °F 90% 29.42 in 4.0 mi NE 18.4 mph - 0.15 in Rain , Thunderstorm Thunderstorms and Rain
4:27 PM 59.0 °F 55.0 °F 87% 29.36 in 10.0 mi ENE 20.7 mph - 0.01 in   Overcast
4:54 PM 59.0 °F 55.0 °F 87% 29.41 in 10.0 mi East 13.8 mph - 0.01 in   Overcast
5:54 PM 59.0 °F 55.0 °F 87% 29.46 in 10.0 mi ESE 11.5 mph 23.0 mph N/A   Overcast
6:04 PM 60.1 °F 55.9 °F 86% 29.46 in 10.0 mi ESE 12.7 mph - N/A   Overcast
6:51 PM 60.8 °F 55.4 °F 82% 29.46 in 10.0 mi ESE 19.6 mph 26.5 mph N/A   Overcast
6:54 PM 61.0 °F 55.9 °F 83% 29.47 in 10.0 mi ESE 18.4 mph 28.8 mph N/A   Overcast
7:04 PM 60.1 °F 55.0 °F 83% 29.48 in 10.0 mi ESE 19.6 mph 29.9 mph N/A   Overcast
7:18 PM 60.1 °F 55.0 °F 83% 29.48 in 10.0 mi ESE 17.3 mph 32.2 mph N/A   Overcast
7:54 PM 60.1 °F 55.0 °F 83% 29.48 in 10.0 mi ESE 16.1 mph 25.3 mph N/A   Overcast
8:54 PM 59.0 °F 55.0 °F 87% 29.50 in 10.0 mi East 17.3 mph 23.0 mph N/A   Overcast
9:49 PM 60.8 °F 55.4 °F 82% 29.46 in 10.0 mi ESE 21.9 mph 28.8 mph N/A Thunderstorm Thunderstorm
9:54 PM 60.1 °F 55.9 °F 86% 29.47 in 10.0 mi ESE 19.6 mph 28.8 mph N/A Thunderstorm Thunderstorm
10:40 PM 60.1 °F 55.9 °F 86% 29.51 in 10.0 mi SE 12.7 mph 21.9 mph 0.00 in Rain , Thunderstorm Light Thunderstorms and Rain
10:54 PM 61.0 °F 57.0 °F 87% 29.52 in 4.0 mi SE 17.3 mph 24.2 mph 0.02 in Rain , Thunderstorm Light Thunderstorms and Rain
11:29 PM 59.0 °F 55.9 °F 90% 29.46 in 5.0 mi East 20.7 mph 25.3 mph 0.09 in Rain Light Rain
11:54 PM 59.0 °F 55.9 °F 90% 29.44 in 7.0 mi East 17.3 mph 28.8 mph 0.14 in Rain Light Rain